Location: ??????
(56.0120°N, 39.1740°E)
Time: 15:44:03
(UTC+00:00)

Ariane Rocket - Pass Details

Date: 14 April 2026
Orbit: 755 x 763 km, 98.4° (Epoch: 17 May)

Event Time Altitude Azimuth Distance (km) Brightness Sun altitude
Exits shadow 17:49:36 15° 127° (SE) 1,972 4.4 -10.9°
Maximum altitude 17:53:25 41° 62° (ENE) 1,093 3.6 -11.4°
Drops below altitude 10° 17:58:08 10° 354° (N) 2,299 6.1 -11.9°
Sets 18:00:33 0° 347° (NNW) 3,229 7.1 -12.1°
